Location: New Plymouth
(39.0670°S, 174.0830°E)
Time: 06:41:54
(UTC+13:00)

NOAA 19 - Pass Details

Date: 23 August 2019
Orbit: 840 x 862 km, 99.2° (Epoch: 13 October)

Event Time Altitude Azimuth Distance (km) Brightness Sun altitude
Rises 06:15:01 0° 331° (NNW) 3,388 8.1 -9.6°
Reaches altitude 10° 06:18:15 10° 311° (NW) 2,464 7.2 -8.9°
Maximum altitude 06:21:39 17° 272° (W) 2,042 6.6 -8.3°
Drops below altitude 10° 06:25:05 10° 233° (SW) 2,487 7.1 -7.6°
Sets 06:28:24 0° 213° (SSW) 3,435 8.0 -7.0°
